Printer-friendly version

IAU Minor Planet Center

Minor Planet Center

MPEC 2007-C49 : 2007 CC19

The following Minor Planet Electronic Circular may be linked-to from your own Web pages, but must not otherwise be redistributed electronically.


Read MPEC 2007-C48 Read MPEC 2007-C50


M.P.E.C. 2007-C49                                Issued 2007 Feb. 11, 01:21 UT

     The Minor Planet Electronic Circulars contain information on unusual
         minor planets and routine data on comets.  They are published
   on behalf of Commission 20 of the International Astronomical Union by the
          Minor Planet Center, Smithsonian Astrophysical Observatory,
                          Cambridge, MA 02138, U.S.A.

             Prepared using the Tamkin Foundation Computer Network

                              MPC@CFA.HARVARD.EDU
          URL http://cfa-www.harvard.edu/iau/mpc.html  ISSN 1523-6714

                                   2007 CC19

Observations:
     K07C19C* C2007 02 10.32774 09 13 29.96 +11 31 23.2          19.8 V EC049G96
     K07C19C  C2007 02 10.33561 09 13 23.05 +11 30 21.8          19.5 V EC049G96
     K07C19C  C2007 02 10.34343 09 13 16.21 +11 29 21.1          19.8 V EC049G96
     K07C19C  C2007 02 10.35121 09 13 09.26 +11 28 19.5          19.9 V EC049G96
     K07C19C  C2007 02 10.39255 09 12 32.37 +11 22 45.3                 EC049G96
     K07C19C  C2007 02 10.39630 09 12 28.97 +11 22 14.5                 EC049G96
     K07C19C  C2007 02 10.40003 09 12 25.54 +11 21 42.9                 EC049G96
     K07C19C  C2007 02 10.99404 09 02 12.10 +09 34 45.0          19.0 R EC049473
     K07C19C  C2007 02 11.00307 09 01 58.77 +09 32 36.6          18.9 R EC049473
     K07C19C  C2007 02 11.00870 09 01 50.36 +09 31 16.7          18.8 R EC049473

Observer details:
473 Remanzacco.  Observers G. Sostero, E. Guido.  0.45-m f/4.4 Newtonian
    reflector + CCD.
G96 Mt. Lemmon Survey.  Observer S. M. Larson.  Measurers E. C. Beshore,
    E. J. Christensen, G. J. Garradd, A. R. Gibbs, A. D. Grauer, R. E. Hill,
    R. A. Kowalski, S. M. Larson, R. H. McNaught.  1.5-m reflector + CCD.

Orbital elements:
2007 CC19                                                Earth MOID = 0.0028 AU
Epoch 2007 Apr. 10.0 TT = JDT 2454200.5                 MPC
M   3.56473              (2000.0)            P               Q
n   0.45510963     Peri.  273.88943     -0.62172868     +0.78283685
a   1.6738840      Node   317.63450     -0.70314223     -0.57187442
e   0.6303839      Incl.    2.11747     -0.34502819     -0.24520624
P   2.17           H   27.0           G   0.15           U   8
Residuals in seconds of arc
070210 G96  0.4+  0.3-    070210 G96  0.9+  0.1+    070211 473  1.0+  0.7-
070210 G96  0.2+  0.6-    070210 G96  0.6+  0.4+    070211 473  1.0+  0.3+
070210 G96  0.9+  0.1-    070210 G96  0.3-  0.2-
070210 G96  0.2-  0.3-    070210 473  0.2+  0.8-

Ephemeris:
2007 CC19                a,e,i = 1.67, 0.63, 2                   q = 0.6187
Date    TT    R. A. (2000) Decl.     Delta      r     Elong.  Phase     V
2007 02 09.0  09 24.75   +13 24.1    0.0426   1.029   178.2     1.7    20.4
2007 02 09.5  09 21.54   +12 52.7    0.0372   1.024   177.1     2.8    20.2
2007 02 10.0  09 17.25   +12 10.2    0.0317   1.018   175.6     4.3    19.9
2007 02 10.5  09 11.22   +11 09.9    0.0263   1.013   173.4     6.4    19.6
2007 02 11.0  09 02.18   +09 37.7    0.0209   1.008   170.4     9.4    19.2
2007 02 11.5  08 47.13   +07 00.8    0.0156   1.002   165.5    14.2    18.8
2007 02 12.0  08 17.58   +01 43.4    0.0105   0.997   156.1    23.6    18.2
2007 02 12.5  07 00.40   -11 54.7    0.00616  0.991   132.3    47.4    17.7
2007 02 13.0  03 04.91   -35 05.7    0.00497  0.986    74.2   105.5    19.4
2007 02 13.5  00 01.63   -31 41.0    0.00846  0.981    35.9   143.8    24.0

Timothy B. Spahr             (C) Copyright 2007 MPC           M.P.E.C. 2007-C49

Read MPEC 2007-C48 Read MPEC 2007-C50


Our Web policy. Index to the CBAT/MPC/ICQ pages.


Valid HTML 4.01!